Regional Weather Roundup
Issued by NWS Grand Forks, ND

Home | Current Version | Previous Version | Graphics & Text | Print | Product List | Glossary On
Versions: 1 2 3 4 5 6 7 8 9 10 11 12 13 14 15 16 17 18 19 20 21 22 23 24 25 26 27 28 29 30 31 32 33 34 35 36 37 38 39 40 41 42 43 44 45 46 47 48 49 50
000
ASUS43 KFGF 230910
RWRFGF
PRAIRIE TO PINES  WEATHER ROUNDUP
NATIONAL WEATHER SERVICE EASTERN NORTH DAKOTA/GRAND FORKS ND
400 AM CDT THU OCT 23 2014

 **SATELLITE DATA USED TO AUGMENT SKY COVER AT AUTOMATED STATIONS**
 *****  WEATHER ACROSS EASTERN NORTH DAKOTA  *****

CITY           SKY/WX    TMP DP  RH WIND       PRES   REMARKS
GRAND FORKS    CLOUDY    50  46  86 SW6       29.83F
GRAND FRKS AFB CLOUDY    51  50  97 SW9       29.83F
GRAND FRKS NWS   N/A     48 N/A N/A SW7         N/A
DEVILS LAKE    CLEAR     52  39  62 SW13      29.82S
FARGO          CLEAR     45  43  93 S7        29.89S
WAHPETON ARPT    N/A     41  39  93 S5        29.92F VSB 3/4
$$

 ***** WEATHER ACROSS CENTRAL AND WESTERN NORTH DAKOTA  *****

CITY           SKY/WX    TMP DP  RH WIND       PRES   REMARKS
BISMARCK       CLEAR     36  31  82 CALM      29.92S
MINOT          CLEAR     46  34  62 SW13      29.83S
JAMESTOWN      CLEAR     42  37  82 SW6       29.89S
MINOT AFB      CLEAR     43  36  75 W8        29.82S
GARRISON         N/A     41  37  86 SW8       29.87S
WILLISTON      CLEAR     38  32  79 SW5       29.87S
DICKINSON      CLEAR     39  28  64 SW8       29.89S
HETTINGER      CLEAR     40  27  59 CALM      29.95S
$$

 *****  OTHER AIRPORT OBSERVATIONS IN OUR AREA  *****

CITY           SKY/WX    TMP DP  RH WIND       PRES   REMARKS
WALHALLA         N/A     54  48  82 W10G20    29.77F
GRAFTON AIRPOR FAIR      45  45 100 SW9       29.81F
VALLEY CITY AR FAIR      45  43  93 SW10      29.89F
CANDO          FAIR      41  39  93 SW8       29.82S
CAVALIER APRT  FAIR      48  45  87 SW8       29.79F
GWINNER        SUNNY     43  43 100 SW10      29.93S
SHEYENNE NWR     N/A     40  40  99 SW6       29.95
ROLLA          FAIR      41  41 100 SW6       29.81F
 ***** THE ABOVE OBSERVATIONS ARE NON NWS ARE NOT QUALITY
       CONTROLLED AND MAY MIS-REPORT RAIN FOR SNOW...
$$

  *****  WEATHER ACROSS NORTHERN MINNESOTA  *****

CITY           SKY/WX    TMP DP  RH WIND       PRES   REMARKS
FLAG ISLAND    MOCLDY    48  48 100 S8        29.80F FOG
WARROAD        CLOUDY    50  46  87 S5        29.82F
ROSEAU         PTCLDY    48  45  87 S9        29.82S
HALLOCK        CLEAR     45  43  93 S8        29.80S
THF RVR FALLS  CLEAR     45  45 100 S7        29.85S
BAUDETTE       MOCLDY    49  46  90 S8        29.85F
WASKISH        PTCLDY    50  48  93 CALM      29.86F
CROOKSTON      CLOUDY    46  46 100 S7        29.86S
STEPHEN NDAWN    N/A     48  46  93 SW8         N/A
GREENBUSH NDAW   N/A     48  46  93 S9          N/A
$$
  *****  WEATHER ACROSS CENTRAL AND WEST MINNESOTA  *****

CITY           SKY/WX    TMP DP  RH WIND       PRES   REMARKS
FOSSTON        CLEAR     46  45  93 S10       29.88S
BEMIDJI        PTCLDY    48  48  99 S7        29.88F FOG
PARK RAPIDS    CLOUDY    51  51 100 SW6       29.91F
ELBOW LAKE     FOG       45  45 100 S7        29.93F VSB 1/4
WADENA         FOG       46  46 100 CALM      29.92F VSB 1/4
DETROIT LAKES  CLEAR     48  46  93 S6        29.91F
MOORHEAD       CLEAR     45  45 100 S8        29.90S
FERGUS FALLS   FOG       45  43  93 S6        29.93F VSB 1/4
MORRIS MN      FOG       45  45 100 S6        29.94S VSB<1/4
STAPLES        FOG       52  52 100 S5        29.94S VSB 1/4
$$
  *****  WEATHER ELSEWHERE ACROSS MINNESOTA  *****

CITY           SKY/WX    TMP DP  RH WIND       PRES   REMARKS
DULUTH         LGT RAIN  51  39  63 S8        29.96F
INTRNTL FALLS  CLOUDY    48  46  93 VRB6      29.88F
ELY            NOT AVBL
CLOQUET        CLOUDY    52  39  62 S8        29.96F
WHEATON        CLEAR     45  43  93 SW7       29.94F
BRAINERD       CLOUDY    49  49 100 S5        29.95S
HIBBING        LGT RAIN  47  44  90 S5        29.94F
ALEXANDRIA     FOG       51  51 100 SW9       29.95F VSB 1/2
SAINT CLOUD    CLOUDY    54  51  90 S5        29.96S FOG
MINNEAPOLIS    CLOUDY    50  49  96 SE7       30.00F
$$

  *****  WEATHER ACROSS SOUTH DAKOTA  *****

CITY           SKY/WX    TMP DP  RH WIND       PRES   REMARKS
SIOUX FALLS    FOG       45  44  97 CALM      30.01F VSB 1/4
BROOKINGS      NOT AVBL
WATERTOWN      FOG       41  40  96 S7        29.97F VSB 1/2
HURON          CLEAR     43  40  89 SW6       29.97F
SISSETON         N/A     50  44  80 W13       29.92F
ABERDEEN       CLEAR     37  35  92 SW7       29.95S
MITCHELL       CLEAR     47  45  93 SW9       30.00F
PIERRE         CLEAR     36  32  85 N3        29.97F
MOBRIDGE       CLEAR     40  34  79 E5        29.93F
RAPID CITY     CLEAR     38  29  70 W7        30.00F
$$

  *****  SOME WEATHER IN NEARBY STATES *****

CITY           SKY/WX    TMP DP  RH WIND       PRES   REMARKS
GLASGOW MT     CLEAR     38  32  79 SE9       29.82S
GREAT FALLS MT CLOUDY    51  31  46 S20       29.81S
CHEYENNE WY    CLEAR     37  29  72 W7        30.17F
SCOTTSBLUFF NE CLEAR     39  28  64 CALM      30.11S
OMAHA NE       CLOUDY    63  59  87 S8        30.03S
DES MOINES IA  CLOUDY    53  49  86 S8        30.07F
DAVENPORT IA   PTCLDY    44  35  70 S13       30.16F
CHICAGO IL     CLEAR     37  35  92 S6        30.22F
EAU CLAIRE WI  CLOUDY    49  42  77 SE8       30.06F
LA CROSSE WI   CLOUDY    51  44  77 SE6       30.09F
$$

  *****  SOME NATIONAL WEATHER *****

CITY           SKY/WX    TMP DP  RH WIND       PRES   REMARKS
LA GUARDIA NY  LGT RAIN  52  48  86 N17       29.69F
RALEIGH NC     CLEAR     46  40  79 CALM      30.00F
ATLANTA GA     CLEAR     48  41  76 N5        30.10S
NEW ORLEANS LA CLEAR     64  49  57 E12       30.05F
OKLAHOMA CITY  CLOUDY    63  58  83 S8        30.09F
ALBUQUERQUE NM CLEAR     55  44  66 SE3       30.21S
SALT LAKE CITY PTCLDY    45  34  65 E6        30.16R
LOS ANGELES CA PTCLDY    64  63  96 CALM      29.96S
BOISE ID       CLOUDY    58  42  55 E10       29.98F
SEATTLE WA     MOCLDY    53  49  86 SE7       29.75R
$$

*** WEATHER ACROSS MANITOBA...SASKATCHEWAN AND ONTARIO ***
                ***ONTARIO***

CITY           SKY/WX    TMP DP  RH WIND       PRES   REMARKS
GERALDTON      CLOUDY    39  37  93 S9        30.06S
THUNDER BAY    CLOUDY    46  43  87 SE5       30.05F
SIOUX LOOKOUT  LGT RAIN  48  41  76 S7        29.87F
TORONTO        CLEAR     43  39  87 N10       30.20R
BIG TROUT LK   PTCLDY    46  39  76 S8        29.79F
PICKLE LAKE    NOT AVBL
DRYDEN         LGT RAIN  48  45  87 S13G18    29.85F
KENORA         LGT RAIN  52  48  87 S10       29.81F
$$
                *** MANITOBA***

CITY           SKY/WX    TMP DP  RH WIND       PRES   REMARKS
BRANDON        PTCLDY    45  43  93 W12       29.76S
DAUPHIN        CLOUDY    52  46  82 W10       29.69R
ISLAND LAKE    LGT RAIN  50  50 100 SE5       29.66F
PILOT MOUND      N/A     43  41  93 SW7         N/A
THE PAS        CLOUDY    45  43  93 N10       29.68
THOMPSON       CLOUDY    39  39 100 NE17      29.74S
WINNIPEG       CLOUDY    52  46  82 SW13G18   29.75S
LYNN LAKE      LGT RAIN  37  37 100 E10       29.80R VSB 1
CHURCHILL      MOCLDY    37  37 100 NE17      29.93R
GILLAM         CLOUDY    37  37 100 NE13G24   29.79F
$$
                ***SASKATCHEWAN***

CITY           SKY/WX    TMP DP  RH WIND       PRES   REMARKS
ESTEVAN        PTCLDY    37  34  87 SW10      29.82R
KINDERSLEY     PTCLDY    41  36  81 S12       29.66S
LLOYDMINSTER   CLEAR     41  34  75 SE9       29.57F
PRINCE ALBERT  FOG       36  36 100 W6        29.72R VSB 3/8
REGINA         CLEAR     34  32  93 VRB3      29.77F
YORKTON        CLOUDY    50  46  87 W8        29.73R
N. BATTLEFORD  PTCLDY    45  36  70 SE13      29.67S
LA RONGE       FOG       43  43 100 NE9       29.72S VSB 1/2
SASKATOON      PTCLDY    32  32 100 S6        29.72F
SWIFT CURRENT  CLEAR     39  36  87 S9        29.72F
$$
NOTE: THESE ARE AUTOMATED STATIONS WITH LIMITED QUALITY CONTROL
      "FAIR" INDICATES FEW OR NO CLOUDS BELOW 12,000 FEET WITH NO
      SIGNIFICANT WEATHER AND/OR OBSTRUCTIONS TO VISIBILITY.
      SKY/WX - SKY CONDITION AND SIGNIFICANT WEATHER.
      TMP - AIR TEMPERATURE.    DP   - DEWPOINT TEMPERATURE.
      RH  - RELATIVE HUMIDITY.  PRES - PRESSURE.
      HX  - HEAT INDEX.         WCI  - WIND CHILL INDEX.
$



USA.gov is the U.S. government's official web portal to all federal, state and local government web resources and services.